Kodiak Airport Kodiak US
ICAO: PADQ
IATA:
Category: Medium
Scheduled Services:

Elevation: 78 ft
TransAlt. 18000 ft.

Airport Communications:
ANCHORAGE CNTR:125.1
ATIS:135.5
CTAF:119.8
KENAI RDO:119.8
GND:121.9
TWEB:117.1
OPS:156.8
KENAI RDO:122.2
TWR:119.8
UNICOM:122.8

PADQ Zoom In..

If you have problems with the map follow the link
https://www.worldairports.se/pages/airport.php?
ICAO=PADQ

Runways:

(A) RW 07 length 7550 ft width 150 ft
---- / hdg 74

(B) RW 11 length 5400 ft width 150 ft
---- / hdg 109

(C) RW 18 length 5010 ft width 150 ft
---- / hdg 184

(D) RW 25 length 7550 ft width 150 ft
ILS 110.90 / hdg 254

(E) RW 29 length 5400 ft width 150 ft
---- / hdg 289

(F) RW 36 length 5010 ft width 150 ft
---- / hdg 4

Location; PADQ
Day. 14 / Time. 22.02 Zulu
* Altimeter: 29.05
* Temperature: 01° c. 33.8°f.
* Wind from: 300° Speed 08 kn.
Dewpoint: -01° c.
Visibility: 1 m.
Clouds: Overcast 1900 ft.
Conditions: Light Snow.Conditions: Mist.

PADQ 142202Z 30008KT 1 3/4SM -SN BR OVC019 01/M01 A2905 RMK AO2 P0000 T00061011


Wind From 300°
Speed 08 kn.

 
 
jpsmedia.com for Web Design worldairports.se 2018   terms of use